Private Wetterstation Wechselburg
Wetterdaten: Mittwoch, 01.02.2023
Datum Zeit Temp. +2m Bodentemp. Temp.+5cm Temp. Wind Windchill X Diff Temp. Feuchte +2m Feuchte +5cm Luftdruck Regen Wind Richtung Richtung Sonnenschein Taupunkt Windchill Windben
01.02.2023 00:00 4,7 C 5,2 C 21,5 C 3,8 C 1,9 C 0,0 C 82 % 99 % 1016,4 hPa 0,0 l/m 10,6 km/h (2 Bft) SW 225 0 min 1,9 C -1,2 C 12,6 km/h (3 Bft)
01.02.2023 00:05 4,7 C 5,2 C 22,4 C 4,1 C 2,1 C 0,0 C 81 % 99 % 1015,9 hPa 0,0 l/m 9,8 km/h (2 Bft) S-SO 157 0 min 1,7 C -0,8 C 8,0 km/h (2 Bft)
01.02.2023 00:11 4,7 C 5,3 C 20,6 C 4,1 C 1,9 C 0,0 C 81 % 99 % 1015,9 hPa 0,0 l/m 10,3 km/h (2 Bft) N 0 0 min 1,7 C -1,1 C 22,0 km/h (4 Bft)
01.02.2023 00:15 4,6 C 5,3 C 20,6 C 3,7 C 1,7 C 0,0 C 81 % 99 % 1015,9 hPa 0,0 l/m 11,1 km/h (2 Bft) SW 225 0 min 1,6 C -1,5 C 10,3 km/h (2 Bft)
01.02.2023 00:20 4,7 C 5,3 C 20,6 C 4,0 C 1,9 C 0,0 C 81 % 99 % 1015,9 hPa 0,0 l/m 10,6 km/h (2 Bft) W-SW 247 0 min 1,7 C -1,2 C 14,0 km/h (3 Bft)
01.02.2023 00:25 4,7 C 5,3 C 23,5 C 4,1 C 2,3 C 0,0 C 82 % 99 % 1015,9 hPa 0,0 l/m 9,3 km/h (2 Bft) W-SW 247 0 min 1,9 C -0,4 C 10,9 km/h (2 Bft)
01.02.2023 00:30 4,8 C 5,3 C 23,5 C 4,3 C 2,7 C 0,0 C 81 % 99 % 1015,9 hPa 0,0 l/m 10,0 km/h (2 Bft) S-SW 202 0 min 1,8 C -0,1 C 13,5 km/h (3 Bft)
01.02.2023 00:32 4,8 C 5,3 C 23,5 C 4,1 C 2,7 C 0,0 C 81 % 99 % 1015,9 hPa 0,0 l/m 10,0 km/h (2 Bft) S-SW 202 0 min 1,8 C -0,1 C 13,5 km/h (3 Bft)
01.02.2023 00:35 4,8 C 5,3 C 23,5 C 4,1 C 2,7 C 0,0 C 81 % 99 % 1015,9 hPa 0,0 l/m 10,0 km/h (2 Bft) S-SW 202 0 min 1,8 C -0,1 C 13,5 km/h (3 Bft)
01.02.2023 00:40 4,8 C 5,2 C 26,1 C 4,1 C 2,7 C 0,0 C 81 % 99 % 1015,9 hPa 0,0 l/m 10,3 km/h (2 Bft) NW 315 0 min 1,8 C -0,2 C 6,3 km/h (2 Bft)
01.02.2023 00:45 4,9 C 5,3 C 26,1 C 4,5 C 2,9 C 0,0 C 81 % 99 % 1015,9 hPa 0,0 l/m 10,1 km/h (2 Bft) SW 225 0 min 1,9 C 0,1 C 11,9 km/h (2 Bft)
01.02.2023 00:50 4,9 C 5,3 C 26,1 C 4,5 C 2,6 C 0,0 C 81 % 99 % 1015,9 hPa 0,0 l/m 11,4 km/h (2 Bft) S 180 0 min 1,9 C -0,5 C 22,0 km/h (4 Bft)
01.02.2023 00:55 5,1 C 5,3 C 28,0 C 4,3 C 2,6 C 0,0 C 81 % 99 % 1015,9 hPa 0,0 l/m 11,9 km/h (2 Bft) S-SW 202 0 min 2,1 C -0,6 C 23,7 km/h (4 Bft)
01.02.2023 01:00 5,0 C 5,3 C 28,0 C 4,2 C 2,6 C 0,0 C 81 % 99 % 1015,9 hPa 0,0 l/m 11,9 km/h (2 Bft) SW 225 0 min 2,0 C -0,6 C 15,9 km/h (3 Bft)
01.02.2023 01:05 4,9 C 5,3 C 29,8 C 4,4 C 2,8 C 0,0 C 80 % 99 % 1016,3 hPa 0,0 l/m 10,6 km/h (2 Bft) S 180 0 min 1,7 C -0,1 C 11,6 km/h (2 Bft)
01.02.2023 01:10 4,9 C 5,3 C 29,8 C 4,4 C 2,7 C 0,0 C 80 % 99 % 1016,3 hPa 0,0 l/m 10,6 km/h (2 Bft) SW 225 0 min 1,7 C -0,2 C 11,1 km/h (2 Bft)
01.02.2023 01:15 4,9 C 5,3 C 30,6 C 4,4 C 2,6 C 0,0 C 80 % 99 % 1016,3 hPa 0,0 l/m 10,8 km/h (2 Bft) W-SW 247 0 min 1,7 C -0,4 C 12,7 km/h (3 Bft)
01.02.2023 01:20 4,8 C 5,3 C 30,7 C 4,4 C 2,9 C 0,0 C 80 % 99 % 1016,3 hPa 0,0 l/m 9,7 km/h (2 Bft) SW 225 0 min 1,6 C 0,2 C 10,6 km/h (2 Bft)
01.02.2023 01:25 4,9 C 5,2 C 30,7 C 4,2 C 2,9 C 0,0 C 80 % 99 % 1016,5 hPa 0,0 l/m 10,1 km/h (2 Bft) SW 225 0 min 1,7 C 0,1 C 18,3 km/h (3 Bft)
01.02.2023 01:30 5,0 C 5,2 C 30,7 C 4,3 C 2,9 C 0,0 C 80 % 99 % 1016,5 hPa 0,0 l/m 10,5 km/h (2 Bft) SW 225 0 min 1,8 C 0,0 C 17,5 km/h (3 Bft)
01.02.2023 01:35 5,1 C 5,2 C 33,4 C 4,6 C 2,7 C 0,0 C 79 % 99 % 1016,5 hPa 0,0 l/m 11,4 km/h (2 Bft) SW 225 0 min 1,8 C -0,4 C 13,4 km/h (3 Bft)
01.02.2023 01:40 5,1 C 5,2 C 33,4 C 4,3 C 2,7 C 0,0 C 79 % 99 % 1016,5 hPa 0,0 l/m 11,1 km/h (2 Bft) SW 225 0 min 1,8 C -0,3 C 10,5 km/h (2 Bft)
01.02.2023 01:45 5,1 C 5,3 C 33,3 C 4,6 C 2,9 C 0,0 C 78 % 99 % 1016,5 hPa 0,0 l/m 10,3 km/h (2 Bft) S-SW 202 0 min 1,6 C 0,1 C 10,8 km/h (2 Bft)
01.02.2023 01:50 5,1 C 5,3 C 33,3 C 4,4 C 2,9 C 0,0 C 78 % 99 % 1016,5 hPa 0,0 l/m 9,8 km/h (2 Bft) SW 225 0 min 1,6 C 0,2 C 15,0 km/h (3 Bft)
01.02.2023 01:55 4,9 C 5,3 C 38,3 C 4,5 C 3,3 C 0,0 C 78 % 99 % 1016,5 hPa 0,0 l/m 8,5 km/h (2 Bft) W-SW 247 0 min 1,4 C 1,0 C 10,9 km/h (2 Bft)
01.02.2023 02:00 4,9 C 5,3 C 38,3 C 4,6 C 3,1 C 0,0 C 78 % 99 % 1016,5 hPa 0,0 l/m 9,2 km/h (2 Bft) W-SW 247 0 min 1,4 C 0,6 C 9,7 km/h (2 Bft)
01.02.2023 02:05 4,9 C 5,3 C 38,3 C 4,6 C 3,3 C 0,0 C 78 % 99 % 1016,4 hPa 0,0 l/m 8,4 km/h (2 Bft) S 180 0 min 1,4 C 1,0 C 4,7 km/h (1 Bft)
01.02.2023 02:11 4,8 C 5,3 C 33,3 C 4,3 C 3,4 C 0,0 C 78 % 99 % 1016,4 hPa 0,0 l/m 7,1 km/h (2 Bft) N 0 0 min 1,3 C 1,5 C 4,2 km/h (1 Bft)
01.02.2023 02:15 4,8 C 5,3 C 33,3 C 4,1 C 3,2 C 0,0 C 78 % 99 % 1016,4 hPa 0,0 l/m 8,2 km/h (2 Bft) W-SW 247 0 min 1,3 C 1,0 C 12,6 km/h (3 Bft)
01.02.2023 02:20 4,9 C 5,3 C 38,7 C 4,5 C 3,1 C 0,0 C 78 % 99 % 1016,4 hPa 0,0 l/m 9,3 km/h (2 Bft) S 180 0 min 1,4 C 0,6 C 10,1 km/h (2 Bft)
01.02.2023 02:25 4,9 C 5,3 C 33,9 C 4,5 C 2,9 C 0,0 C 78 % 99 % 1016,4 hPa 0,0 l/m 10,1 km/h (2 Bft) SW 225 0 min 1,4 C 0,1 C 12,7 km/h (3 Bft)
01.02.2023 02:30 4,8 C 5,3 C 38,2 C 4,4 C 2,8 C 0,0 C 77 % 99 % 1016,4 hPa 0,0 l/m 9,8 km/h (2 Bft) SW 225 0 min 1,1 C 0,1 C 11,6 km/h (2 Bft)
01.02.2023 02:32 4,8 C 5,3 C 38,2 C 4,1 C 2,8 C 0,0 C 77 % 99 % 1016,4 hPa 0,0 l/m 9,8 km/h (2 Bft) SW 225 0 min 1,1 C 0,1 C 11,6 km/h (2 Bft)
01.02.2023 02:35 4,8 C 5,3 C 38,2 C 4,1 C 2,8 C 0,0 C 77 % 99 % 1016,4 hPa 0,0 l/m 9,8 km/h (2 Bft) SW 225 0 min 1,1 C 0,1 C 11,6 km/h (2 Bft)
01.02.2023 02:40 4,8 C 5,3 C 38,2 C 4,4 C 3,0 C 0,0 C 78 % 99 % 1016,4 hPa 0,0 l/m 9,2 km/h (2 Bft) SW 225 0 min 1,3 C 0,5 C 12,6 km/h (3 Bft)
01.02.2023 02:45 4,8 C 5,3 C 38,2 C 4,4 C 2,8 C 0,0 C 77 % 99 % 1016,4 hPa 0,0 l/m 10,1 km/h (2 Bft) SW 225 0 min 1,1 C 0,0 C 14,0 km/h (3 Bft)
01.02.2023 02:50 4,8 C 5,3 C 38,3 C 4,4 C 2,6 C 0,0 C 77 % 99 % 1016,4 hPa 0,0 l/m 11,1 km/h (2 Bft) S-SW 202 0 min 1,1 C -0,5 C 13,2 km/h (3 Bft)
01.02.2023 02:55 4,8 C 5,3 C 38,3 C 4,3 C 2,5 C 0,0 C 77 % 99 % 1016,4 hPa 0,0 l/m 10,6 km/h (2 Bft) SW 225 0 min 1,1 C -0,5 C 12,1 km/h (2 Bft)
01.02.2023 03:00 4,7 C 5,3 C 42,7 C 4,2 C 2,4 C 0,0 C 77 % 99 % 1016,4 hPa 0,0 l/m 10,5 km/h (2 Bft) SW 225 0 min 1,0 C -0,6 C 14,0 km/h (3 Bft)
01.02.2023 03:05 4,7 C 5,3 C 42,6 C 4,2 C 2,5 C 0,0 C 77 % 99 % 1016,2 hPa 0,0 l/m 9,5 km/h (2 Bft) S-SW 202 0 min 1,0 C -0,2 C 11,1 km/h (2 Bft)
01.02.2023 03:10 4,7 C 5,3 C 42,6 C 4,0 C 2,5 C 0,0 C 77 % 99 % 1016,2 hPa 0,0 l/m 9,7 km/h (2 Bft) W-SW 247 0 min 1,0 C -0,3 C 10,9 km/h (2 Bft)
01.02.2023 03:15 4,6 C 5,3 C 73,0 C 4,2 C 2,7 C 0,0 C 77 % 99 % 1016,2 hPa 0,0 l/m 8,7 km/h (2 Bft) SW 225 0 min 0,9 C 0,2 C 8,0 km/h (2 Bft)
01.02.2023 03:20 4,7 C 5,3 C 73,0 C 4,3 C 2,8 C 0,0 C 77 % 99 % 1016,2 hPa 0,0 l/m 8,2 km/h (2 Bft) SW 225 0 min 1,0 C 0,5 C 11,9 km/h (2 Bft)
01.02.2023 03:25 4,7 C 5,3 C 73,0 C 4,3 C 2,6 C 0,0 C 77 % 99 % 1015,9 hPa 0,0 l/m 9,0 km/h (2 Bft) S-SW 202 0 min 1,0 C 0,0 C 10,8 km/h (2 Bft)
01.02.2023 03:30 4,7 C 5,3 C 73,0 C 4,3 C 2,7 C 0,0 C 77 % 99 % 1015,9 hPa 0,0 l/m 8,7 km/h (2 Bft) NW 315 0 min 1,0 C 0,2 C 10,6 km/h (2 Bft)
01.02.2023 03:35 4,5 C 5,3 C 73,0 C 4,1 C 2,6 C 0,0 C 77 % 99 % 1015,9 hPa 0,0 l/m 8,4 km/h (2 Bft) S-SW 202 0 min 0,8 C 0,2 C 11,9 km/h (2 Bft)
01.02.2023 03:40 4,5 C 5,3 C 73,0 C 3,9 C 2,6 C 0,0 C 77 % 99 % 1015,9 hPa 0,0 l/m 8,5 km/h (2 Bft) SW 225 0 min 0,8 C 0,2 C 11,1 km/h (2 Bft)
01.02.2023 03:45 4,4 C 5,3 C 73,0 C 4,0 C 2,4 C 0,0 C 77 % 99 % 1015,1 hPa 0,0 l/m 8,7 km/h (2 Bft) S-SW 202 0 min 0,7 C -0,1 C 6,1 km/h (2 Bft)
01.02.2023 03:50 4,4 C 5,3 C 73,0 C 3,7 C 2,4 C 0,0 C 77 % 99 % 1015,1 hPa 0,0 l/m 8,5 km/h (2 Bft) W-SW 247 0 min 0,7 C -0,1 C 12,7 km/h (3 Bft)
01.02.2023 03:55 4,3 C 5,3 C 73,0 C 3,9 C 2,3 C 0,0 C 77 % 99 % 1015,1 hPa 0,0 l/m 7,9 km/h (2 Bft) SW 225 0 min 0,6 C -0,0 C 11,3 km/h (2 Bft)
01.02.2023 04:00 4,3 C 5,3 C 73,0 C 3,6 C 2,3 C 0,0 C 77 % 99 % 1015,1 hPa 0,0 l/m 8,0 km/h (2 Bft) SW 225 0 min 0,6 C -0,0 C 8,2 km/h (2 Bft)
01.02.2023 04:05 4,3 C 5,3 C 73,0 C 3,6 C 2,3 C 0,0 C 77 % 99 % 1015,1 hPa 0,0 l/m 8,4 km/h (2 Bft) S 180 0 min 0,6 C -0,2 C 6,3 km/h (2 Bft)
01.02.2023 04:11 4,4 C 5,3 C 73,0 C 3,7 C 2,3 C 0,0 C 77 % 99 % 1015,1 hPa 0,0 l/m 9,7 km/h (2 Bft) N 0 0 min 0,7 C -0,5 C 11,6 km/h (2 Bft)
01.02.2023 04:15 4,4 C 5,3 C 73,0 C 3,7 C 2,3 C 0,0 C 77 % 99 % 1015,1 hPa 0,0 l/m 8,9 km/h (2 Bft) S-SW 202 0 min 0,7 C -0,3 C 10,1 km/h (2 Bft)
01.02.2023 04:20 4,4 C 5,3 C 73,0 C 4,0 C 2,4 C 0,0 C 77 % 99 % 1014,9 hPa 0,0 l/m 8,7 km/h (2 Bft) SW 225 0 min 0,7 C -0,1 C 9,2 km/h (2 Bft)
01.02.2023 04:25 4,3 C 5,3 C 73,0 C 3,9 C 2,7 C 0,0 C 77 % 99 % 1014,9 hPa 0,0 l/m 7,9 km/h (2 Bft) SW 225 0 min 0,6 C 0,5 C 13,0 km/h (3 Bft)
01.02.2023 04:30 4,4 C 5,3 C 73,0 C 4,0 C 2,6 C 0,0 C 77 % 99 % 1014,9 hPa 0,0 l/m 7,7 km/h (2 Bft) S-SW 202 0 min 0,7 C 0,4 C 8,0 km/h (2 Bft)
01.02.2023 04:32 4,4 C 5,3 C 73,0 C 3,8 C 2,6 C 0,0 C 77 % 99 % 1014,9 hPa 0,0 l/m 7,7 km/h (2 Bft) S-SW 202 0 min 0,7 C 0,4 C 8,0 km/h (2 Bft)
01.02.2023 04:35 4,4 C 5,3 C 73,0 C 3,8 C 2,6 C 0,0 C 77 % 99 % 1014,9 hPa 0,0 l/m 7,7 km/h (2 Bft) S-SW 202 0 min 0,7 C 0,4 C 8,0 km/h (2 Bft)
01.02.2023 04:40 4,4 C 5,3 C 73,0 C 4,0 C 2,4 C 0,0 C 77 % 99 % 1014,9 hPa 0,0 l/m 8,9 km/h (2 Bft) S-SW 202 0 min 0,7 C -0,2 C 14,8 km/h (3 Bft)
01.02.2023 04:45 4,4 C 5,3 C 73,0 C 4,0 C 2,5 C 0,0 C 77 % 99 % 1015,0 hPa 0,0 l/m 9,3 km/h (2 Bft) SW 225 0 min 0,7 C -0,2 C 12,9 km/h (3 Bft)
01.02.2023 04:50 4,4 C 5,3 C 73,0 C 3,8 C 2,5 C 0,0 C 77 % 99 % 1015,0 hPa 0,0 l/m 9,2 km/h (2 Bft) SW 225 0 min 0,7 C -0,1 C 7,9 km/h (2 Bft)
01.02.2023 04:55 4,5 C 5,3 C 73,0 C 4,1 C 2,6 C 0,0 C 77 % 99 % 1015,0 hPa 0,0 l/m 8,2 km/h (2 Bft) W-SW 247 0 min 0,8 C 0,3 C 8,2 km/h (2 Bft)
01.02.2023 05:00 4,4 C 5,3 C 73,0 C 4,1 C 2,8 C 0,0 C 77 % 99 % 1015,0 hPa 0,0 l/m 8,2 km/h (2 Bft) SW 225 0 min 0,7 C 0,5 C 14,6 km/h (3 Bft)
01.02.2023 05:05 4,4 C 5,3 C 73,0 C 3,9 C 2,8 C 0,0 C 77 % 99 % 1014,8 hPa 0,0 l/m 7,9 km/h (2 Bft) SW 225 0 min 0,7 C 0,6 C 11,3 km/h (2 Bft)
01.02.2023 05:10 4,4 C 5,3 C 73,0 C 3,9 C 2,8 C 0,0 C 77 % 99 % 1014,8 hPa 0,0 l/m 8,0 km/h (2 Bft) S-SW 202 0 min 0,7 C 0,6 C 15,4 km/h (3 Bft)
01.02.2023 05:15 4,5 C 5,3 C 73,0 C 3,9 C 2,8 C 0,0 C 77 % 99 % 1014,8 hPa 0,0 l/m 8,0 km/h (2 Bft) SW 225 0 min 0,8 C 0,6 C 10,5 km/h (2 Bft)
01.02.2023 05:20 4,5 C 5,3 C 73,0 C 3,9 C 2,8 C 0,0 C 76 % 99 % 1014,8 hPa 0,0 l/m 8,2 km/h (2 Bft) S-SW 202 0 min 0,6 C 0,5 C 9,5 km/h (2 Bft)
01.02.2023 05:25 4,5 C 5,3 C 73,0 C 3,9 C 2,8 C 0,0 C 76 % 99 % 1015,4 hPa 0,0 l/m 7,4 km/h (2 Bft) O 90 0 min 0,6 C 0,7 C 12,2 km/h (2 Bft)
01.02.2023 05:30 4,4 C 5,3 C 73,0 C 3,9 C 2,9 C 0,0 C 76 % 99 % 1015,4 hPa 0,0 l/m 6,9 km/h (2 Bft) SW 225 0 min 0,5 C 1,0 C 6,9 km/h (2 Bft)
01.02.2023 05:35 4,4 C 5,3 C 73,0 C 3,9 C 2,9 C 0,0 C 76 % 99 % 1015,4 hPa 0,0 l/m 6,8 km/h (2 Bft) S 180 0 min 0,5 C 1,0 C 3,2 km/h (1 Bft)
01.02.2023 05:40 4,4 C 5,3 C 73,0 C 4,0 C 3,2 C 0,0 C 76 % 99 % 1015,4 hPa 0,0 l/m 5,8 km/h (2 Bft) SW 225 0 min 0,5 C 1,7 C 4,2 km/h (1 Bft)
01.02.2023 05:45 4,4 C 5,3 C 73,0 C 4,2 C 3,7 C 0,0 C 76 % 99 % 1014,5 hPa 0,0 l/m 4,3 km/h (1 Bft) S 180 0 min 0,5 C 3,7 C 6,0 km/h (2 Bft)
01.02.2023 05:50 4,4 C 5,3 C 73,0 C 4,1 C 3,5 C 0,0 C 76 % 99 % 1014,5 hPa 0,0 l/m 4,7 km/h (1 Bft) SW 225 0 min 0,5 C 2,5 C 4,7 km/h (1 Bft)
01.02.2023 05:55 4,3 C 5,3 C 73,0 C 4,1 C 3,8 C 0,0 C 76 % 99 % 1014,5 hPa 0,0 l/m 3,7 km/h (1 Bft) W-SW 247 0 min 0,5 C 3,8 C 4,7 km/h (1 Bft)
01.02.2023 06:00 4,3 C 5,3 C 6,5 C 4,1 C 3,8 C 0,0 C 76 % 99 % 1014,5 hPa 0,0 l/m 3,7 km/h (1 Bft) SW 225 0 min 0,5 C 3,8 C 12,6 km/h (3 Bft)
01.02.2023 06:05 4,3 C 5,3 C 6,5 C 4,1 C 3,8 C 0,0 C 76 % 99 % 1014,0 hPa 0,0 l/m 3,7 km/h (1 Bft) S-SW 202 0 min 0,5 C 3,8 C 4,3 km/h (1 Bft)
01.02.2023 06:11 4,1 C 5,3 C 8,7 C 4,0 C 3,8 C 0,0 C 76 % 99 % 1014,0 hPa 0,0 l/m 3,2 km/h (1 Bft) N 0 0 min 0,3 C 3,8 C 3,9 km/h (1 Bft)
01.02.2023 06:15 4,3 C 5,3 C 8,7 C 4,0 C 3,3 C 0,0 C 76 % 99 % 1014,0 hPa 0,0 l/m 4,3 km/h (1 Bft) S 180 0 min 0,5 C 3,3 C 13,5 km/h (3 Bft)
01.02.2023 06:20 4,3 C 5,3 C 4,0 C 3,8 C 2,7 C 0,0 C 76 % 99 % 1013,9 hPa 0,0 l/m 6,3 km/h (2 Bft) NW 315 0 min 0,5 C 1,0 C 10,9 km/h (2 Bft)
01.02.2023 06:25 4,3 C 5,3 C 4,0 C 3,8 C 2,8 C 0,0 C 76 % 99 % 1013,9 hPa 0,0 l/m 6,0 km/h (2 Bft) S 180 0 min 0,5 C 1,2 C 5,8 km/h (2 Bft)
01.02.2023 06:30 4,2 C 5,3 C 4,0 C 3,7 C 2,7 C 0,0 C 76 % 99 % 1013,9 hPa 0,0 l/m 6,1 km/h (2 Bft) SW 225 0 min 0,4 C 1,0 C 11,4 km/h (2 Bft)
01.02.2023 06:32 4,2 C 5,3 C 4,0 C 3,7 C 2,7 C 0,0 C 76 % 99 % 1013,9 hPa 0,0 l/m 6,1 km/h (2 Bft) SW 225 0 min 0,4 C 1,0 C 11,4 km/h (2 Bft)
01.02.2023 06:35 4,2 C 5,3 C 4,0 C 3,7 C 2,7 C 0,0 C 76 % 99 % 1013,9 hPa 0,0 l/m 6,1 km/h (2 Bft) SW 225 0 min 0,4 C 1,0 C 11,4 km/h (2 Bft)
01.02.2023 06:40 4,2 C 5,3 C 73,0 C 3,6 C 2,5 C 0,0 C 77 % 99 % 1013,9 hPa 0,0 l/m 6,9 km/h (2 Bft) S 180 0 min 0,5 C 0,5 C 14,2 km/h (3 Bft)
01.02.2023 06:45 4,3 C 5,3 C 73,0 C 3,9 C 2,2 C 0,0 C 77 % 99 % 1013,6 hPa 0,0 l/m 8,4 km/h (2 Bft) W-SW 247 0 min 0,6 C -0,3 C 9,0 km/h (2 Bft)
01.02.2023 06:50 4,3 C 5,3 C 73,0 C 3,8 C 2,3 C 0,0 C 77 % 99 % 1013,6 hPa 0,0 l/m 7,7 km/h (2 Bft) S 180 0 min 0,6 C 0,1 C 10,8 km/h (2 Bft)
01.02.2023 06:55 4,3 C 5,3 C 73,0 C 3,8 C 2,8 C 0,0 C 77 % 99 % 1013,6 hPa 0,0 l/m 6,6 km/h (2 Bft) S-SO 157 0 min 0,6 C 1,0 C 13,0 km/h (3 Bft)
01.02.2023 07:00 4,3 C 5,3 C 73,0 C 3,9 C 2,4 C 0,0 C 77 % 99 % 1013,6 hPa 0,0 l/m 7,9 km/h (2 Bft) S 180 0 min 0,6 C 0,1 C 12,4 km/h (3 Bft)
01.02.2023 07:05 4,3 C 5,3 C 0,4 C 3,9 C 2,3 C 0,0 C 78 % 99 % 1013,8 hPa 0,0 l/m 8,2 km/h (2 Bft) SW 225 0 min 0,8 C -0,1 C 6,4 km/h (2 Bft)
01.02.2023 07:10 4,3 C 5,3 C 0,4 C 3,6 C 2,3 C 0,0 C 78 % 99 % 1013,8 hPa 0,0 l/m 8,0 km/h (2 Bft) S 180 0 min 0,8 C -0,0 C 13,0 km/h (3 Bft)
01.02.2023 07:15 4,2 C 5,3 C 1,1 C 3,8 C 2,1 C 0,0 C 78 % 99 % 1013,8 hPa 0,0 l/m 8,7 km/h (2 Bft) W-SW 247 0 min 0,7 C -0,5 C 5,5 km/h (1 Bft)
01.02.2023 07:20 4,1 C 5,3 C 73,0 C 3,7 C 2,2 C 0,0 C 78 % 99 % 1013,8 hPa 0,0 l/m 8,2 km/h (2 Bft) SW 225 0 min 0,6 C -0,2 C 10,8 km/h (2 Bft)
01.02.2023 07:25 4,1 C 5,3 C 73,0 C 3,5 C 2,2 C 0,0 C 79 % 99 % 1013,9 hPa 0,0 l/m 8,5 km/h (2 Bft) S-SW 202 0 min 0,8 C -0,3 C 8,0 km/h (2 Bft)
01.02.2023 07:30 4,1 C 5,3 C 0,5 C 3,7 C 2,0 C 0,0 C 79 % 99 % 1013,9 hPa 0,0 l/m 9,2 km/h (2 Bft) W-SW 247 0 min 0,8 C -0,7 C 9,2 km/h (2 Bft)
01.02.2023 07:35 4,1 C 5,3 C 0,5 C 3,7 C 2,2 C 0,0 C 79 % 99 % 1013,9 hPa 0,0 l/m 8,4 km/h (2 Bft) S-SW 202 0 min 0,8 C -0,3 C 6,9 km/h (2 Bft)
01.02.2023 07:40 4,1 C 5,3 C 0,5 C 3,5 C 2,4 C 0,0 C 79 % 99 % 1013,9 hPa 0,0 l/m 7,1 km/h (2 Bft) SW 225 0 min 0,8 C 0,4 C 5,5 km/h (1 Bft)
01.02.2023 07:45 4,0 C 5,3 C 13,7 C 3,5 C 2,6 C 0,0 C 79 % 99 % 1013,9 hPa 0,0 l/m 6,6 km/h (2 Bft) S-SW 202 0 min 0,7 C 0,8 C 8,9 km/h (2 Bft)
01.02.2023 07:50 4,0 C 5,3 C 13,7 C 3,6 C 2,7 C 0,0 C 79 % 99 % 1013,9 hPa 0,0 l/m 6,4 km/h (2 Bft) S-SW 202 0 min 0,7 C 0,9 C 6,8 km/h (2 Bft)
01.02.2023 07:55 4,0 C 5,3 C 11,7 C 3,6 C 2,8 C 0,0 C 79 % 99 % 1013,9 hPa 0,0 l/m 6,1 km/h (2 Bft) SW 225 0 min 0,7 C 1,2 C 10,3 km/h (2 Bft)
01.02.2023 08:00 4,0 C 5,3 C 10,2 C 3,6 C 2,9 C 0,0 C 79 % 99 % 1013,9 hPa 0,0 l/m 5,8 km/h (2 Bft) S 180 0 min 0,7 C 1,4 C 12,2 km/h (2 Bft)
01.02.2023 08:05 4,0 C 5,3 C 9,6 C 3,7 C 3,0 C 0,0 C 79 % 99 % 1014,0 hPa 0,0 l/m 5,5 km/h (1 Bft) S 180 0 min 0,7 C 1,6 C 6,6 km/h (2 Bft)
01.02.2023 08:11 4,0 C 5,3 C 9,6 C 3,6 C 2,8 C 0,0 C 79 % 99 % 1014,0 hPa 0,0 l/m 5,8 km/h (2 Bft) N 0 0 min 0,7 C 1,3 C 14,2 km/h (3 Bft)
01.02.2023 08:15 4,0 C 5,3 C 9,6 C 3,7 C 3,0 C 0,0 C 79 % 99 % 1014,0 hPa 0,0 l/m 5,1 km/h (1 Bft) W 270 0 min 0,7 C 1,8 C 5,0 km/h (1 Bft)
01.02.2023 08:20 4,0 C 5,3 C 9,6 C 3,7 C 3,1 C 0,0 C 79 % 99 % 1013,5 hPa 0,0 l/m 4,8 km/h (1 Bft) W-SW 247 0 min 0,7 C 2,0 C 3,7 km/h (1 Bft)
01.02.2023 08:25 4,1 C 5,3 C 9,6 C 3,8 C 3,2 C 0,0 C 79 % 99 % 1013,5 hPa 0,0 l/m 4,7 km/h (1 Bft) S-SW 202 0 min 0,8 C 2,2 C 5,5 km/h (1 Bft)
01.02.2023 08:30 4,0 C 5,3 C 8,0 C 3,6 C 2,7 C 0,0 C 79 % 99 % 1013,5 hPa 0,0 l/m 6,3 km/h (2 Bft) S 180 0 min 0,7 C 1,0 C 10,5 km/h (2 Bft)
01.02.2023 08:32 4,0 C 5,3 C 8,0 C 3,6 C 2,7 C 0,0 C 79 % 99 % 1013,5 hPa 0,0 l/m 6,3 km/h (2 Bft) S 180 0 min 0,7 C 1,0 C 10,5 km/h (2 Bft)
01.02.2023 08:35 4,0 C 5,3 C 8,0 C 3,6 C 2,7 C 0,0 C 79 % 99 % 1013,5 hPa 0,0 l/m 6,3 km/h (2 Bft) S 180 0 min 0,7 C 1,0 C 10,5 km/h (2 Bft)
01.02.2023 08:40 4,1 C 5,3 C 8,0 C 3,6 C 2,7 C 0,0 C 79 % 99 % 1013,5 hPa 0,0 l/m 6,6 km/h (2 Bft) S-SW 202 0 min 0,8 C 0,9 C 6,0 km/h (2 Bft)
01.02.2023 08:45 4,0 C 5,3 C 2,9 C 3,8 C 2,6 C 0,0 C 79 % 99 % 1013,5 hPa 0,0 l/m 7,7 km/h (2 Bft) O 90 0 min 0,7 C 0,4 C 19,2 km/h (3 Bft)
01.02.2023 08:50 4,1 C 5,3 C 2,9 C 3,6 C 2,6 C 0,0 C 78 % 99 % 1013,5 hPa 0,0 l/m 8,0 km/h (2 Bft) SW 225 0 min 0,6 C 0,3 C 9,2 km/h (2 Bft)
01.02.2023 08:55 4,1 C 5,3 C 2,9 C 3,8 C 2,7 C 0,0 C 78 % 99 % 1013,5 hPa 0,0 l/m 7,7 km/h (2 Bft) S 180 0 min 0,6 C 0,5 C 13,8 km/h (3 Bft)
01.02.2023 09:00 4,1 C 5,3 C 1,7 C 3,7 C 2,9 C 0,0 C 78 % 99 % 1013,5 hPa 0,0 l/m 6,9 km/h (2 Bft) S 180 0 min 0,6 C 1,0 C 11,1 km/h (2 Bft)
01.02.2023 09:05 4,2 C 5,3 C 1,7 C 3,9 C 3,2 C 0,0 C 78 % 99 % 1014,1 hPa 0,0 l/m 6,1 km/h (2 Bft) SW 225 0 min 0,7 C 1,6 C 6,1 km/h (2 Bft)
01.02.2023 09:10 4,3 C 5,3 C 2,3 C 3,9 C 3,1 C 0,0 C 78 % 99 % 1014,1 hPa 0,0 l/m 6,8 km/h (2 Bft) SW 225 0 min 0,8 C 1,3 C 12,6 km/h (3 Bft)
01.02.2023 09:15 4,4 C 5,3 C 2,3 C 4,1 C 2,8 C 0,0 C 77 % 99 % 1014,1 hPa 0,0 l/m 8,2 km/h (2 Bft) SW 225 0 min 0,7 C 0,5 C 13,4 km/h (3 Bft)
01.02.2023 09:20 4,4 C 5,3 C 2,3 C 4,1 C 2,9 C 0,0 C 77 % 99 % 1014,1 hPa 0,0 l/m 8,4 km/h (2 Bft) S-SW 202 0 min 0,7 C 0,6 C 8,7 km/h (2 Bft)
01.02.2023 09:25 4,5 C 5,3 C 0,9 C 4,0 C 2,9 C 0,0 C 77 % 99 % 1013,6 hPa 0,0 l/m 9,7 km/h (2 Bft) S-SW 202 0 min 0,8 C 0,2 C 13,5 km/h (3 Bft)
01.02.2023 09:30 4,5 C 5,3 C 0,9 C 4,0 C 2,9 C 0,0 C 76 % 99 % 1013,6 hPa 0,0 l/m 10,1 km/h (2 Bft) S-SW 202 0 min 0,6 C 0,1 C 12,6 km/h (3 Bft)
01.02.2023 09:35 4,6 C 5,3 C 6,5 C 4,0 C 2,9 C 0,0 C 76 % 99 % 1013,6 hPa 0,0 l/m 10,0 km/h (2 Bft) SW 225 0 min 0,7 C 0,1 C 16,7 km/h (3 Bft)
01.02.2023 09:40 4,7 C 5,3 C 6,5 C 4,1 C 2,9 C 0,0 C 75 % 99 % 1013,6 hPa 0,0 l/m 10,5 km/h (2 Bft) SW 225 0 min 0,7 C 0,0 C 15,8 km/h (3 Bft)
01.02.2023 09:45 4,8 C 5,3 C 2,7 C 4,4 C 2,7 C 0,0 C 75 % 99 % 1013,4 hPa 0,0 l/m 11,1 km/h (2 Bft) SW 225 0 min 0,8 C -0,3 C 16,1 km/h (3 Bft)
01.02.2023 09:50 4,8 C 5,3 C 73,0 C 4,4 C 2,9 C 0,0 C 75 % 99 % 1013,4 hPa 0,0 l/m 10,9 km/h (2 Bft) SW 225 0 min 0,8 C -0,1 C 11,4 km/h (2 Bft)
01.02.2023 09:55 4,8 C 5,3 C 73,0 C 4,4 C 2,7 C 0,0 C 75 % 99 % 1013,4 hPa 0,0 l/m 12,2 km/h (2 Bft) W-SW 247 0 min 0,8 C -0,6 C 25,3 km/h (4 Bft)
01.02.2023 10:00 4,8 C 5,3 C 73,0 C 4,4 C 2,4 C 0,0 C 75 % 99 % 1013,4 hPa 0,0 l/m 13,0 km/h (3 Bft) S 180 0 min 0,8 C -1,1 C 10,1 km/h (2 Bft)
01.02.2023 10:05 4,8 C 5,3 C 5,3 C 4,3 C 2,2 C 0,0 C 75 % 99 % 1013,3 hPa 0,0 l/m 13,8 km/h (3 Bft) NW 315 0 min 0,8 C -1,5 C 29,9 km/h (5 Bft)
01.02.2023 10:11 4,3 C 5,8 C 0,6 C 3,6 C 0,4 C 0,0 C 78 % 99 % 1013,3 hPa 0,0 l/m 14,6 km/h (3 Bft) N 0 0 min 0,8 C -3,8 C 10,5 km/h (2 Bft)
01.02.2023 10:15 4,1 C 5,8 C 0,6 C 3,1 C 0,1 C 0,0 C 79 % 99 % 1013,3 hPa 0,0 l/m 14,0 km/h (3 Bft) SW 225 0 min 0,8 C -4,1 C 10,3 km/h (2 Bft)
01.02.2023 10:20 3,9 C 5,8 C 73,0 C 3,0 C 0,4 C 0,0 C 81 % 99 % 1013,4 hPa 0,0 l/m 10,9 km/h (2 Bft) S 180 0 min 0,9 C -3,1 C 7,6 km/h (2 Bft)
01.02.2023 10:25 3,9 C 5,8 C 73,0 C 3,0 C 0,3 C 0,0 C 82 % 99 % 1013,4 hPa 0,0 l/m 10,6 km/h (2 Bft) W-SW 247 0 min 1,1 C -3,1 C 16,3 km/h (3 Bft)
01.02.2023 10:30 3,8 C 5,8 C 73,0 C 2,9 C 0,1 C 0,0 C 82 % 99 % 1013,4 hPa 0,0 l/m 11,1 km/h (2 Bft) SW 225 0 min 1,0 C -3,5 C 11,7 km/h (2 Bft)
01.02.2023 10:32 3,8 C 5,8 C 73,0 C 2,6 C 0,1 C 0,0 C 82 % 99 % 1013,4 hPa 0,0 l/m 11,1 km/h (2 Bft) SW 225 0 min 1,0 C -3,5 C 11,7 km/h (2 Bft)
01.02.2023 10:35 3,8 C 5,8 C 73,0 C 2,6 C 0,1 C 0,0 C 82 % 99 % 1013,4 hPa 0,0 l/m 11,1 km/h (2 Bft) SW 225 0 min 1,0 C -3,5 C 11,7 km/h (2 Bft)
01.02.2023 10:40 3,8 C 5,8 C 73,0 C 2,9 C 0,0 C 0,0 C 83 % 99 % 1013,4 hPa 0,0 l/m 11,7 km/h (2 Bft) SW 225 0 min 1,2 C -3,7 C 19,3 km/h (3 Bft)
01.02.2023 10:45 3,9 C 5,6 C 73,0 C 2,6 C 0,0 C 0,0 C 83 % 99 % 1013,5 hPa 0,0 l/m 12,4 km/h (3 Bft) S-SW 202 0 min 1,3 C -3,9 C 12,2 km/h (2 Bft)
01.02.2023 10:50 3,9 C 5,5 C 73,0 C 2,9 C -0,1 C 0,0 C 84 % 99 % 1013,5 hPa 0,0 l/m 13,0 km/h (3 Bft) W 270 0 min 1,4 C -4,1 C 16,3 km/h (3 Bft)
01.02.2023 10:55 3,9 C 5,5 C 73,0 C 3,0 C 0,0 C 0,0 C 84 % 99 % 1013,5 hPa 0,0 l/m 13,4 km/h (3 Bft) N-NO 22 0 min 1,4 C -4,1 C 17,1 km/h (3 Bft)
01.02.2023 11:00 4,0 C 5,5 C 4,7 C 3,1 C 0,2 C 0,0 C 83 % 99 % 1013,5 hPa 0,0 l/m 13,0 km/h (3 Bft) SW 225 0 min 1,4 C -3,8 C 15,3 km/h (3 Bft)
01.02.2023 11:05 4,3 C 5,4 C 73,0 C 3,4 C 0,4 C 0,0 C 83 % 99 % 1013,6 hPa 0,7 l/m 15,0 km/h (3 Bft) S-SW 202 0 min 1,7 C -3,9 C 31,4 km/h (5 Bft)
01.02.2023 11:10 4,4 C 5,4 C 73,0 C 3,5 C 0,7 C 0,0 C 83 % 99 % 1013,6 hPa 0,0 l/m 15,4 km/h (3 Bft) SW 225 0 min 1,8 C -3,6 C 10,6 km/h (2 Bft)
01.02.2023 11:15 4,6 C 5,4 C 73,0 C 3,9 C 1,7 C 0,0 C 82 % 99 % 1013,6 hPa 0,0 l/m 13,4 km/h (3 Bft) S 180 0 min 1,8 C -2,0 C 17,7 km/h (3 Bft)
01.02.2023 11:20 4,7 C 5,4 C 73,0 C 4,1 C 2,2 C 0,0 C 81 % 99 % 1013,6 hPa 0,0 l/m 12,4 km/h (3 Bft) SW 225 0 min 1,7 C -1,2 C 25,7 km/h (4 Bft)
01.02.2023 11:25 4,8 C 5,4 C 73,0 C 3,9 C 2,2 C 0,0 C 80 % 99 % 1013,6 hPa 0,0 l/m 13,7 km/h (3 Bft) SW 225 0 min 1,6 C -1,5 C 14,3 km/h (3 Bft)
01.02.2023 11:30 4,9 C 5,4 C 0,5 C 4,4 C 2,4 C 0,0 C 80 % 99 % 1013,6 hPa 0,0 l/m 13,8 km/h (3 Bft) W 270 0 min 1,7 C -1,2 C 11,4 km/h (2 Bft)
01.02.2023 11:35 4,8 C 5,4 C 0,9 C 4,4 C 2,7 C 0,0 C 80 % 99 % 1013,6 hPa 0,0 l/m 11,9 km/h (2 Bft) S 180 0 min 1,6 C -0,5 C 11,6 km/h (2 Bft)
01.02.2023 11:40 4,8 C 5,4 C 2,9 C 4,5 C 3,2 C 0,0 C 80 % 99 % 1013,6 hPa 0,0 l/m 11,7 km/h (2 Bft) W-SW 247 0 min 1,6 C 0,1 C 12,2 km/h (2 Bft)
01.02.2023 11:45 4,9 C 5,4 C 73,0 C 4,6 C 3,1 C 0,0 C 80 % 99 % 1013,9 hPa 0,0 l/m 12,2 km/h (2 Bft) SW 225 0 min 1,7 C -0,1 C 20,8 km/h (4 Bft)
01.02.2023 11:50 5,1 C 5,4 C 73,0 C 4,4 C 3,1 C 0,0 C 79 % 99 % 1013,9 hPa 0,0 l/m 12,4 km/h (3 Bft) W-SW 247 0 min 1,8 C -0,1 C 10,6 km/h (2 Bft)
01.02.2023 11:55 5,1 C 5,4 C 73,0 C 4,8 C 3,4 C 0,0 C 79 % 99 % 1013,9 hPa 0,0 l/m 11,4 km/h (2 Bft) S-SW 202 0 min 1,8 C 0,4 C 7,1 km/h (2 Bft)
01.02.2023 12:00 5,1 C 5,4 C 73,0 C 4,8 C 3,6 C 0,0 C 78 % 99 % 1013,9 hPa 0,0 l/m 10,8 km/h (2 Bft) W-SW 247 0 min 1,6 C 0,8 C 25,3 km/h (4 Bft)
01.02.2023 12:05 5,2 C 5,4 C 73,0 C 5,0 C 3,7 C 0,0 C 77 % 99 % 1014,3 hPa 0,0 l/m 12,4 km/h (3 Bft) S-SW 202 0 min 1,5 C 0,6 C 15,3 km/h (3 Bft)
01.02.2023 12:11 5,5 C 5,4 C 8,7 C 4,9 C 3,7 C 0,0 C 76 % 99 % 1014,3 hPa 0,0 l/m 14,0 km/h (3 Bft) N 0 0 min 1,6 C 0,3 C 26,1 km/h (4 Bft)
01.02.2023 12:15 5,5 C 5,4 C 8,7 C 4,8 C 3,6 C 0,0 C 76 % 99 % 1014,3 hPa 0,0 l/m 14,8 km/h (3 Bft) SW 225 0 min 1,6 C 0,1 C 16,3 km/h (3 Bft)
01.02.2023 12:20 5,5 C 5,4 C 11,9 C 5,2 C 3,8 C 0,0 C 76 % 99 % 1013,9 hPa 0,0 l/m 14,5 km/h (3 Bft) W-SW 247 0 min 1,6 C 0,4 C 13,8 km/h (3 Bft)
01.02.2023 12:25 5,5 C 5,4 C 11,9 C 5,3 C 4,0 C 0,0 C 76 % 99 % 1013,9 hPa 0,0 l/m 13,8 km/h (3 Bft) W 270 0 min 1,6 C 0,7 C 17,7 km/h (3 Bft)
01.02.2023 12:30 5,6 C 5,4 C 5,7 C 5,1 C 4,0 C 0,0 C 76 % 99 % 1013,9 hPa 0,0 l/m 13,8 km/h (3 Bft) W-SW 247 0 min 1,7 C 0,7 C 15,0 km/h (3 Bft)
01.02.2023 12:32 5,6 C 5,4 C 5,7 C 5,1 C 4,0 C 0,0 C 76 % 99 % 1013,9 hPa 0,0 l/m 13,8 km/h (3 Bft) W-SW 247 0 min 1,7 C 0,7 C 15,0 km/h (3 Bft)
01.02.2023 12:35 5,6 C 5,4 C 5,7 C 5,1 C 4,0 C 0,0 C 76 % 99 % 1013,9 hPa 0,0 l/m 13,8 km/h (3 Bft) W-SW 247 0 min 1,7 C 0,7 C 15,0 km/h (3 Bft)
01.02.2023 12:40 5,6 C 5,4 C 5,7 C 5,4 C 4,3 C 0,0 C 76 % 99 % 1013,9 hPa 0,0 l/m 13,4 km/h (3 Bft) W-SW 247 0 min 1,7 C 1,2 C 11,9 km/h (2 Bft)
01.02.2023 12:45 5,6 C 5,4 C 5,7 C 5,2 C 4,3 C 0,0 C 76 % 99 % 1014,2 hPa 0,0 l/m 13,5 km/h (3 Bft) SW 225 0 min 1,7 C 1,1 C 17,5 km/h (3 Bft)
01.02.2023 12:50 5,7 C 5,4 C 21,6 C 5,5 C 4,2 C 0,0 C 76 % 99 % 1014,2 hPa 0,0 l/m 13,0 km/h (3 Bft) SW 225 0 min 1,8 C 1,1 C 16,1 km/h (3 Bft)
01.02.2023 12:55 5,6 C 5,4 C 21,6 C 5,5 C 4,6 C 0,0 C 76 % 99 % 1014,2 hPa 0,0 l/m 12,6 km/h (3 Bft) S-SW 202 0 min 1,7 C 1,7 C 13,0 km/h (3 Bft)
01.02.2023 13:00 5,7 C 5,4 C 23,9 C 5,6 C 4,9 C 0,0 C 76 % 99 % 1014,2 hPa 0,0 l/m 11,6 km/h (2 Bft) SW 225 0 min 1,8 C 2,2 C 14,2 km/h (3 Bft)
01.02.2023 13:05 5,8 C 5,4 C 23,9 C 5,8 C 5,1 C 0,0 C 76 % 99 % 1013,6 hPa 0,0 l/m 11,1 km/h (2 Bft) W-SW 247 0 min 1,9 C 2,6 C 15,6 km/h (3 Bft)
01.02.2023 13:10 5,9 C 5,4 C 23,9 C 5,8 C 4,7 C 0,0 C 76 % 99 % 1013,6 hPa 0,0 l/m 11,6 km/h (2 Bft) W-SW 247 0 min 2,0 C 2,0 C 11,4 km/h (2 Bft)
01.02.2023 13:15 5,9 C 5,4 C 23,9 C 5,5 C 4,7 C 0,0 C 75 % 99 % 1013,6 hPa 0,0 l/m 11,7 km/h (2 Bft) SW 225 0 min 1,8 C 2,0 C 24,3 km/h (4 Bft)
01.02.2023 13:20 5,9 C 5,4 C 23,9 C 5,7 C 4,6 C 0,0 C 74 % 99 % 1013,6 hPa 0,0 l/m 12,7 km/h (3 Bft) SW 225 0 min 1,6 C 1,6 C 18,8 km/h (3 Bft)
01.02.2023 13:25 6,0 C 5,4 C 23,7 C 5,8 C 4,5 C 0,0 C 74 % 99 % 1013,6 hPa 0,0 l/m 12,9 km/h (3 Bft) SW 225 0 min 1,7 C 1,5 C 15,6 km/h (3 Bft)
01.02.2023 13:30 6,0 C 5,4 C 23,7 C 5,8 C 4,7 C 0,0 C 74 % 99 % 1013,6 hPa 0,0 l/m 11,1 km/h (2 Bft) SW 225 0 min 1,7 C 2,1 C 12,9 km/h (3 Bft)
01.02.2023 13:35 6,0 C 5,4 C 23,7 C 5,7 C 4,3 C 0,0 C 74 % 99 % 1013,6 hPa 0,0 l/m 12,2 km/h (2 Bft) S-SO 157 0 min 1,7 C 1,4 C 15,6 km/h (3 Bft)
01.02.2023 13:40 6,1 C 5,4 C 22,1 C 5,8 C 4,5 C 0,0 C 74 % 99 % 1013,6 hPa 0,0 l/m 11,1 km/h (2 Bft) S-SW 202 0 min 1,8 C 1,8 C 9,0 km/h (2 Bft)
01.02.2023 13:45 6,1 C 5,4 C 22,1 C 5,8 C 4,6 C 0,0 C 73 % 99 % 1013,9 hPa 0,0 l/m 10,6 km/h (2 Bft) SW 225 0 min 1,6 C 2,1 C 15,4 km/h (3 Bft)
01.02.2023 13:50 6,0 C 5,4 C 23,4 C 5,8 C 4,7 C 0,0 C 73 % 99 % 1013,9 hPa 0,0 l/m 10,0 km/h (2 Bft) SW 225 0 min 1,5 C 2,3 C 11,9 km/h (2 Bft)
01.02.2023 13:55 6,0 C 5,5 C 23,4 C 5,9 C 5,1 C 0,0 C 73 % 99 % 1013,9 hPa 0,0 l/m 9,0 km/h (2 Bft) S 180 0 min 1,5 C 3,0 C 14,3 km/h (3 Bft)
01.02.2023 14:00 6,1 C 5,5 C 23,4 C 5,9 C 4,8 C 0,0 C 73 % 99 % 1013,9 hPa 0,0 l/m 9,8 km/h (2 Bft) W-SW 247 0 min 1,6 C 2,5 C 23,8 km/h (4 Bft)
01.02.2023 14:05 6,1 C 5,5 C 16,4 C 5,9 C 4,5 C 0,0 C 72 % 99 % 1013,5 hPa 0,0 l/m 11,6 km/h (2 Bft) S-SW 202 0 min 1,4 C 1,7 C 9,8 km/h (2 Bft)
01.02.2023 14:11 6,3 C 5,5 C 13,0 C 5,9 C 4,4 C 0,0 C 71 % 99 % 1013,5 hPa 0,0 l/m 12,1 km/h (2 Bft) N 0 0 min 1,4 C 1,5 C 18,2 km/h (3 Bft)
01.02.2023 14:24 6,3 C 5,5 C 23,1 C 6,0 C 4,9 C 0,0 C 71 % 99 % 1013,4 hPa 0,0 l/m 10,5 km/h (2 Bft) SW 225 0 min 1,4 C 2,4 C 8,0 km/h (2 Bft)
01.02.2023 14:41 6,1 C 5,5 C 20,1 C 5,8 C 4,4 C 0,0 C 71 % 99 % 1012,9 hPa 0,0 l/m 11,3 km/h (2 Bft) SW 225 0 min 1,2 C 1,7 C 17,7 km/h (3 Bft)
01.02.2023 14:50 6,1 C 5,5 C 20,1 C 5,8 C 4,2 C 0,0 C 71 % 99 % 1012,9 hPa 0,0 l/m 12,1 km/h (2 Bft) S-SW 202 0 min 1,2 C 1,3 C 17,9 km/h (3 Bft)
01.02.2023 14:55 6,0 C 5,5 C 23,3 C 5,6 C 4,1 C 0,0 C 71 % 99 % 1012,9 hPa 0,0 l/m 11,9 km/h (2 Bft) W-SW 247 0 min 1,1 C 1,2 C 15,1 km/h (3 Bft)
01.02.2023 15:00 6,0 C 5,5 C 23,3 C 5,6 C 4,2 C 0,0 C 71 % 99 % 1012,9 hPa 0,0 l/m 11,3 km/h (2 Bft) SW 225 0 min 1,1 C 1,4 C 11,6 km/h (2 Bft)
01.02.2023 15:05 6,0 C 5,5 C 18,9 C 5,4 C 4,2 C 0,0 C 71 % 99 % 1012,9 hPa 0,0 l/m 11,4 km/h (2 Bft) S-SW 202 0 min 1,1 C 1,4 C 15,4 km/h (3 Bft)
01.02.2023 15:10 6,0 C 5,5 C 18,9 C 5,6 C 4,1 C 0,0 C 71 % 99 % 1012,9 hPa 0,0 l/m 12,1 km/h (2 Bft) SW 225 0 min 1,1 C 1,1 C 18,8 km/h (3 Bft)
01.02.2023 15:15 6,0 C 5,5 C 21,7 C 5,6 C 3,7 C 0,0 C 71 % 99 % 1012,9 hPa 0,0 l/m 13,2 km/h (3 Bft) S 180 0 min 1,1 C 0,5 C 17,4 km/h (3 Bft)
01.02.2023 15:20 6,0 C 5,5 C 21,6 C 5,5 C 3,6 C 0,0 C 71 % 99 % 1012,9 hPa 0,0 l/m 13,8 km/h (3 Bft) S-SW 202 0 min 1,1 C 0,2 C 16,3 km/h (3 Bft)
01.02.2023 15:25 5,9 C 5,5 C 21,6 C 5,5 C 3,7 C 0,0 C 71 % 99 % 1012,5 hPa 0,0 l/m 13,4 km/h (3 Bft) N-NO 22 0 min 1,1 C 0,4 C 22,0 km/h (4 Bft)
01.02.2023 15:30 6,0 C 5,5 C 21,6 C 5,2 C 3,7 C 0,0 C 71 % 99 % 1012,5 hPa 0,0 l/m 13,0 km/h (3 Bft) SW 225 0 min 1,1 C 0,5 C 14,5 km/h (3 Bft)
01.02.2023 15:35 5,9 C 5,5 C 23,5 C 5,2 C 3,7 C 0,0 C 71 % 99 % 1012,5 hPa 0,0 l/m 12,4 km/h (3 Bft) SW 225 0 min 1,1 C 0,6 C 11,1 km/h (2 Bft)
01.02.2023 15:40 5,9 C 5,5 C 24,2 C 5,5 C 3,9 C 0,0 C 71 % 99 % 1012,5 hPa 0,0 l/m 11,4 km/h (2 Bft) SW 225 0 min 1,1 C 1,0 C 11,7 km/h (2 Bft)
01.02.2023 15:45 5,9 C 5,5 C 24,2 C 5,5 C 4,0 C 0,0 C 72 % 99 % 1012,3 hPa 0,0 l/m 10,6 km/h (2 Bft) S-SW 202 0 min 1,2 C 1,3 C 13,4 km/h (3 Bft)
01.02.2023 15:50 5,8 C 5,5 C 24,2 C 5,5 C 4,1 C 0,0 C 72 % 99 % 1012,3 hPa 0,0 l/m 10,3 km/h (2 Bft) SW 225 0 min 1,2 C 1,5 C 14,3 km/h (3 Bft)
01.02.2023 15:55 5,7 C 5,5 C 24,2 C 5,4 C 3,8 C 0,0 C 72 % 99 % 1012,3 hPa 0,0 l/m 11,3 km/h (2 Bft) S 180 0 min 1,1 C 0,9 C 14,0 km/h (3 Bft)
01.02.2023 16:00 5,8 C 5,5 C 24,2 C 5,1 C 3,8 C 0,0 C 72 % 99 % 1012,3 hPa 0,0 l/m 11,7 km/h (2 Bft) SO 135 0 min 1,2 C 0,9 C 14,6 km/h (3 Bft)
01.02.2023 16:05 5,7 C 5,5 C 24,2 C 5,3 C 3,6 C 0,0 C 71 % 99 % 1012,3 hPa 0,0 l/m 11,9 km/h (2 Bft) SW 225 0 min 0,9 C 0,6 C 20,1 km/h (4 Bft)
01.02.2023 16:11 5,8 C 5,5 C 24,2 C 5,3 C 3,5 C 0,0 C 71 % 99 % 1012,3 hPa 0,0 l/m 13,2 km/h (3 Bft) N 0 0 min 1,0 C 0,2 C 11,9 km/h (2 Bft)
01.02.2023 16:15 5,9 C 5,5 C 24,2 C 5,0 C 3,5 C 0,0 C 71 % 99 % 1012,3 hPa 0,0 l/m 13,4 km/h (3 Bft) W-SW 247 0 min 1,1 C 0,2 C 14,8 km/h (3 Bft)
01.02.2023 16:20 5,9 C 5,5 C 24,2 C 5,4 C 3,4 C 0,0 C 71 % 99 % 1012,2 hPa 0,0 l/m 14,0 km/h (3 Bft) S-SW 202 0 min 1,1 C -0,1 C 14,2 km/h (3 Bft)
01.02.2023 16:25 5,9 C 5,5 C 24,2 C 5,1 C 3,4 C 0,0 C 70 % 99 % 1012,2 hPa 0,0 l/m 13,7 km/h (3 Bft) W-SW 247 0 min 0,9 C -0,0 C 14,0 km/h (3 Bft)
01.02.2023 16:30 5,9 C 5,5 C 24,2 C 5,4 C 3,5 C 0,0 C 70 % 99 % 1012,2 hPa 0,0 l/m 13,4 km/h (3 Bft) W-SW 247 0 min 0,9 C 0,2 C 15,6 km/h (3 Bft)
01.02.2023 16:32 5,9 C 5,5 C 24,2 C 5,1 C 3,5 C 0,0 C 70 % 99 % 1012,2 hPa 0,0 l/m 13,4 km/h (3 Bft) W-SW 247 0 min 0,9 C 0,2 C 15,6 km/h (3 Bft)
01.02.2023 16:35 5,9 C 5,5 C 24,2 C 5,1 C 3,5 C 0,0 C 70 % 99 % 1012,2 hPa 0,0 l/m 13,4 km/h (3 Bft) W-SW 247 0 min 0,9 C 0,2 C 15,6 km/h (3 Bft)
01.02.2023 16:40 5,9 C 5,5 C 24,2 C 5,4 C 3,3 C 0,0 C 70 % 99 % 1012,2 hPa 0,0 l/m 13,7 km/h (3 Bft) SW 225 0 min 0,9 C -0,1 C 14,0 km/h (3 Bft)
01.02.2023 16:45 5,8 C 5,5 C 24,2 C 5,2 C 3,1 C 0,0 C 71 % 99 % 1012,1 hPa 0,0 l/m 12,7 km/h (3 Bft) SW 225 0 min 1,0 C -0,2 C 18,3 km/h (3 Bft)
01.02.2023 16:50 5,7 C 5,5 C 24,2 C 5,2 C 3,2 C 0,0 C 70 % 99 % 1012,1 hPa 0,0 l/m 12,7 km/h (3 Bft) SW 225 0 min 0,7 C -0,1 C 14,8 km/h (3 Bft)
01.02.2023 16:55 5,8 C 5,5 C 24,2 C 5,3 C 3,4 C 0,0 C 70 % 99 % 1012,1 hPa 0,0 l/m 12,9 km/h (3 Bft) W-SW 247 0 min 0,8 C 0,1 C 18,2 km/h (3 Bft)
01.02.2023 17:00 5,9 C 5,6 C 24,2 C 5,3 C 3,2 C 0,0 C 70 % 99 % 1012,1 hPa 0,0 l/m 13,2 km/h (3 Bft) SW 225 0 min 0,9 C -0,2 C 22,9 km/h (4 Bft)
01.02.2023 17:05 5,7 C 5,6 C 24,2 C 5,1 C 2,9 C 0,0 C 70 % 99 % 1011,6 hPa 0,0 l/m 13,0 km/h (3 Bft) S-SW 202 0 min 0,7 C -0,5 C 24,5 km/h (4 Bft)
01.02.2023 17:10 5,7 C 5,6 C 24,2 C 5,1 C 3,1 C 0,0 C 70 % 99 % 1011,6 hPa 0,0 l/m 13,0 km/h (3 Bft) N 360 0 min 0,7 C -0,2 C 11,7 km/h (2 Bft)
01.02.2023 17:15 5,8 C 5,6 C 24,2 C 4,9 C 3,1 C 0,0 C 69 % 99 % 1011,6 hPa 0,0 l/m 15,4 km/h (3 Bft) S-SW 202 0 min 0,6 C -0,7 C 18,2 km/h (3 Bft)
01.02.2023 17:20 5,9 C 5,6 C 24,2 C 5,0 C 3,1 C 0,0 C 69 % 99 % 1011,6 hPa 0,0 l/m 15,8 km/h (3 Bft) SW 225 0 min 0,7 C -0,7 C 19,6 km/h (3 Bft)
01.02.2023 17:25 6,0 C 5,6 C 24,2 C 5,0 C 3,1 C 0,0 C 69 % 99 % 1011,5 hPa 0,0 l/m 16,3 km/h (3 Bft) SW 225 0 min 0,8 C -0,8 C 23,5 km/h (4 Bft)
01.02.2023 17:30 5,9 C 5,6 C 24,2 C 5,3 C 3,2 C 0,0 C 69 % 99 % 1011,5 hPa 0,0 l/m 15,9 km/h (3 Bft) W-SW 247 0 min 0,7 C -0,6 C 15,1 km/h (3 Bft)
01.02.2023 17:35 5,9 C 5,6 C 24,2 C 5,3 C 3,0 C 0,0 C 70 % 99 % 1011,5 hPa 0,0 l/m 16,9 km/h (3 Bft) W-SW 247 0 min 0,9 C -1,0 C 37,7 km/h (5 Bft)
01.02.2023 17:40 5,8 C 5,6 C 24,2 C 5,1 C 2,2 C 0,0 C 71 % 99 % 1011,5 hPa 0,0 l/m 18,2 km/h (3 Bft) SW 225 0 min 1,0 C -2,2 C 14,2 km/h (3 Bft)
01.02.2023 17:45 5,6 C 5,8 C 24,2 C 4,8 C 2,0 C 0,0 C 72 % 99 % 1012,8 hPa 0,0 l/m 15,0 km/h (3 Bft) N-NW 337 0 min 1,0 C -2,0 C 10,1 km/h (2 Bft)
01.02.2023 17:50 4,3 C 6,0 C 24,2 C 3,6 C 0,9 C 0,0 C 72 % 99 % 1012,8 hPa 0,0 l/m 9,5 km/h (2 Bft) W 270 0 min -0,3 C -2,1 C 9,8 km/h (2 Bft)
01.02.2023 17:55 2,8 C 6,0 C 24,2 C 1,7 C -0,4 C 0,0 C 74 % 99 % 1012,8 hPa 0,0 l/m 6,0 km/h (2 Bft) S 180 0 min -1,4 C -2,5 C 10,3 km/h (2 Bft)
01.02.2023 18:00 2,2 C 6,0 C 24,2 C 1,4 C -0,2 C 0,0 C 76 % 99 % 1012,8 hPa 0,0 l/m 4,2 km/h (1 Bft) SW 225 0 min -1,6 C -0,2 C 5,6 km/h (1 Bft)
01.02.2023 18:05 1,9 C 5,9 C 24,2 C 0,9 C -1,0 C 0,0 C 78 % 99 % 1013,4 hPa 0,0 l/m 5,0 km/h (1 Bft) S 180 0 min -1,5 C -2,7 C 6,9 km/h (2 Bft)
01.02.2023 18:11 1,7 C 5,9 C 24,2 C 0,8 C -2,3 C 0,0 C 82 % 99 % 1013,4 hPa 0,0 l/m 8,4 km/h (2 Bft) N 0 0 min -1,0 C -5,6 C 15,9 km/h (3 Bft)
01.02.2023 18:15 1,6 C 5,9 C 24,2 C 0,9 C -2,2 C 0,0 C 83 % 99 % 1013,4 hPa 0,0 l/m 7,9 km/h (2 Bft) W-SW 247 0 min -1,0 C -5,3 C 9,7 km/h (2 Bft)
01.02.2023 18:20 1,6 C 5,9 C 24,2 C 0,5 C -1,7 C 0,0 C 83 % 99 % 1012,9 hPa 0,0 l/m 6,9 km/h (2 Bft) S-SW 202 0 min -1,0 C -4,3 C 11,1 km/h (2 Bft)
01.02.2023 18:25 1,6 C 5,9 C 24,2 C 0,5 C -1,8 C 0,0 C 84 % 99 % 1012,9 hPa 0,0 l/m 7,6 km/h (2 Bft) W-SW 247 0 min -0,8 C -4,7 C 12,6 km/h (3 Bft)
01.02.2023 18:30 1,8 C 5,9 C 24,2 C 0,6 C -1,8 C 0,0 C 85 % 99 % 1012,9 hPa 0,0 l/m 8,0 km/h (2 Bft) W 270 0 min -0,4 C -4,9 C 12,9 km/h (3 Bft)
01.02.2023 18:32 1,8 C 5,9 C 24,2 C 0,6 C -1,8 C 0,0 C 85 % 99 % 1012,9 hPa 0,0 l/m 8,0 km/h (2 Bft) W 270 0 min -0,4 C -4,9 C 12,9 km/h (3 Bft)
01.02.2023 18:35 1,8 C 5,9 C 24,2 C 0,6 C -1,8 C 0,0 C 85 % 99 % 1012,9 hPa 0,0 l/m 8,0 km/h (2 Bft) W 270 0 min -0,4 C -4,9 C 12,9 km/h (3 Bft)
01.02.2023 18:40 1,9 C 5,9 C 24,2 C 1,0 C -1,7 C 0,0 C 85 % 99 % 1012,9 hPa 0,7 l/m 8,0 km/h (2 Bft) W-SW 247 0 min -0,3 C -4,7 C 13,2 km/h (3 Bft)
01.02.2023 18:45 1,8 C 5,9 C 24,2 C 0,9 C -1,6 C 0,0 C 85 % 99 % 1013,0 hPa 0,0 l/m 7,9 km/h (2 Bft) SW 225 0 min -0,4 C -4,6 C 9,8 km/h (2 Bft)
01.02.2023 18:50 1,9 C 5,9 C 24,2 C 0,8 C -1,4 C 0,0 C 86 % 99 % 1013,0 hPa 0,0 l/m 7,6 km/h (2 Bft) SW 225 0 min -0,2 C -4,2 C 9,7 km/h (2 Bft)
01.02.2023 18:55 1,9 C 5,9 C 24,2 C 1,0 C -1,6 C 0,0 C 86 % 99 % 1013,0 hPa 0,0 l/m 7,7 km/h (2 Bft) SW 225 0 min -0,2 C -4,5 C 10,6 km/h (2 Bft)
01.02.2023 19:00 1,9 C 5,9 C 24,2 C 0,9 C -1,2 C 0,0 C 86 % 99 % 1013,0 hPa 0,0 l/m 6,4 km/h (2 Bft) SW 225 0 min -0,2 C -3,6 C 12,6 km/h (3 Bft)
01.02.2023 19:05 1,9 C 5,8 C 24,2 C 0,9 C -1,1 C 0,0 C 86 % 99 % 1013,0 hPa 0,0 l/m 5,8 km/h (2 Bft) SW 225 0 min -0,2 C -3,2 C 7,7 km/h (2 Bft)
01.02.2023 19:10 1,9 C 5,8 C 24,2 C 1,0 C -0,8 C 0,0 C 86 % 99 % 1013,0 hPa 0,0 l/m 5,3 km/h (1 Bft) SW 225 0 min -0,2 C -2,6 C 7,6 km/h (2 Bft)
01.02.2023 19:15 1,9 C 5,8 C 24,2 C 0,9 C -1,0 C 0,0 C 86 % 99 % 1013,0 hPa 0,0 l/m 5,6 km/h (1 Bft) SW 225 0 min -0,2 C -3,0 C 8,5 km/h (2 Bft)
01.02.2023 19:20 1,9 C 5,8 C 24,2 C 0,9 C -1,2 C 0,0 C 86 % 99 % 1013,0 hPa 0,7 l/m 6,1 km/h (2 Bft) SW 225 0 min -0,2 C -3,4 C 7,1 km/h (2 Bft)
01.02.2023 19:25 1,9 C 5,8 C 24,2 C 0,8 C -1,3 C 0,0 C 86 % 99 % 1013,0 hPa 0,0 l/m 6,4 km/h (2 Bft) SW 225 0 min -0,2 C -3,7 C 7,6 km/h (2 Bft)
01.02.2023 19:30 2,0 C 5,8 C 24,2 C 0,8 C -1,6 C 0,0 C 86 % 99 % 1013,0 hPa 0,0 l/m 7,6 km/h (2 Bft) SW 225 0 min -0,1 C -4,5 C 12,9 km/h (3 Bft)
01.02.2023 19:35 1,9 C 5,8 C 24,2 C 0,7 C -1,6 C 0,0 C 86 % 99 % 1013,0 hPa 0,0 l/m 7,7 km/h (2 Bft) SW 225 0 min -0,2 C -4,5 C 7,4 km/h (2 Bft)
01.02.2023 19:40 2,0 C 5,8 C 24,2 C 0,8 C -1,6 C 0,0 C 86 % 99 % 1013,0 hPa 0,0 l/m 7,9 km/h (2 Bft) S 180 0 min -0,1 C -4,6 C 9,3 km/h (2 Bft)
01.02.2023 19:45 2,0 C 5,8 C 24,2 C 1,1 C -1,4 C 0,0 C 86 % 99 % 1013,6 hPa 0,0 l/m 7,7 km/h (2 Bft) SW 225 0 min -0,1 C -4,3 C 8,4 km/h (2 Bft)
01.02.2023 19:50 2,0 C 5,8 C 24,2 C 0,9 C -1,3 C 0,0 C 86 % 99 % 1013,6 hPa 0,0 l/m 7,6 km/h (2 Bft) SW 225 0 min -0,1 C -4,1 C 10,1 km/h (2 Bft)
01.02.2023 19:55 2,1 C 5,8 C 24,2 C 1,0 C -1,3 C 0,0 C 87 % 99 % 1013,6 hPa 0,0 l/m 8,0 km/h (2 Bft) S 180 0 min 0,2 C -4,3 C 10,6 km/h (2 Bft)
01.02.2023 20:00 2,1 C 5,8 C 24,2 C 1,3 C -1,4 C 0,0 C 87 % 99 % 1013,6 hPa 0,0 l/m 9,0 km/h (2 Bft) S-SW 202 0 min 0,2 C -4,7 C 9,5 km/h (2 Bft)
01.02.2023 20:05 2,3 C 5,8 C 24,2 C 1,4 C -1,3 C 0,0 C 87 % 99 % 1013,4 hPa 0,7 l/m 9,3 km/h (2 Bft) SW 225 0 min 0,4 C -4,7 C 9,8 km/h (2 Bft)
01.02.2023 20:11 2,2 C 5,8 C 24,2 C 1,4 C -1,2 C 0,0 C 87 % 99 % 1013,4 hPa 0,0 l/m 9,2 km/h (2 Bft) N 0 0 min 0,3 C -4,5 C 9,2 km/h (2 Bft)
01.02.2023 20:15 2,3 C 5,7 C 24,2 C 1,6 C -1,1 C 0,0 C 87 % 99 % 1013,4 hPa 0,0 l/m 8,9 km/h (2 Bft) W-SW 247 0 min 0,4 C -4,3 C 11,3 km/h (2 Bft)
01.02.2023 20:20 2,3 C 5,7 C 24,2 C 1,2 C -1,1 C 0,0 C 87 % 99 % 1013,7 hPa 0,0 l/m 8,2 km/h (2 Bft) W-SW 247 0 min 0,4 C -4,1 C 11,3 km/h (2 Bft)
01.02.2023 20:25 2,3 C 5,7 C 24,2 C 1,5 C -1,0 C 0,0 C 87 % 99 % 1013,7 hPa 0,0 l/m 8,0 km/h (2 Bft) W 270 0 min 0,4 C -3,9 C 8,0 km/h (2 Bft)
01.02.2023 20:30 2,2 C 5,7 C 24,2 C 1,4 C -1,2 C 0,0 C 87 % 99 % 1013,7 hPa 0,0 l/m 8,2 km/h (2 Bft) W-SW 247 0 min 0,3 C -4,2 C 9,7 km/h (2 Bft)
01.02.2023 20:32 2,2 C 5,7 C 24,2 C 1,1 C -1,2 C 0,0 C 87 % 99 % 1013,7 hPa 0,0 l/m 8,2 km/h (2 Bft) W-SW 247 0 min 0,3 C -4,2 C 9,7 km/h (2 Bft)
01.02.2023 20:35 2,2 C 5,7 C 24,2 C 1,1 C -1,2 C 0,0 C 87 % 99 % 1013,7 hPa 0,0 l/m 8,2 km/h (2 Bft) W-SW 247 0 min 0,3 C -4,2 C 9,7 km/h (2 Bft)
01.02.2023 20:40 2,3 C 5,7 C 24,2 C 1,4 C -1,1 C 0,0 C 87 % 99 % 1013,7 hPa 0,0 l/m 8,4 km/h (2 Bft) S-SW 202 0 min 0,4 C -4,2 C 9,7 km/h (2 Bft)
01.02.2023 20:45 2,3 C 5,7 C 24,2 C 1,5 C -0,8 C 0,0 C 87 % 99 % 1014,1 hPa 0,7 l/m 7,9 km/h (2 Bft) SW 225 0 min 0,4 C -3,6 C 8,5 km/h (2 Bft)
01.02.2023 20:50 2,3 C 5,6 C 24,2 C 1,3 C -0,8 C 0,0 C 87 % 99 % 1014,1 hPa 0,0 l/m 7,7 km/h (2 Bft) W-SW 247 0 min 0,4 C -3,6 C 12,1 km/h (2 Bft)
01.02.2023 20:55 2,4 C 5,6 C 24,2 C 1,3 C -0,8 C 0,0 C 87 % 99 % 1014,1 hPa 0,0 l/m 8,4 km/h (2 Bft) W-SW 247 0 min 0,5 C -3,8 C 10,1 km/h (2 Bft)
01.02.2023 21:00 2,4 C 5,6 C 24,2 C 1,7 C -0,6 C 0,0 C 87 % 99 % 1014,1 hPa 0,0 l/m 8,9 km/h (2 Bft) S 180 0 min 0,5 C -3,7 C 9,3 km/h (2 Bft)
01.02.2023 21:05 2,4 C 5,6 C 24,2 C 1,8 C -0,1 C 0,0 C 87 % 99 % 1013,9 hPa 0,0 l/m 7,9 km/h (2 Bft) W-SW 247 0 min 0,5 C -2,8 C 8,7 km/h (2 Bft)
01.02.2023 21:10 2,4 C 5,6 C 24,2 C 1,7 C 0,3 C 0,0 C 87 % 99 % 1013,9 hPa 0,0 l/m 6,8 km/h (2 Bft) W-SW 247 0 min 0,5 C -2,0 C 9,3 km/h (2 Bft)
01.02.2023 21:15 2,3 C 5,6 C 24,2 C 1,7 C 0,4 C 0,0 C 87 % 99 % 1013,9 hPa 0,0 l/m 6,4 km/h (2 Bft) SW 225 0 min 0,4 C -1,7 C 8,0 km/h (2 Bft)
01.02.2023 21:20 2,4 C 5,6 C 24,2 C 1,7 C 0,4 C 0,0 C 87 % 99 % 1013,9 hPa 0,0 l/m 6,4 km/h (2 Bft) SW 225 0 min 0,5 C -1,7 C 5,3 km/h (1 Bft)
01.02.2023 21:25 2,4 C 5,6 C 24,2 C 1,7 C 0,4 C 0,0 C 87 % 99 % 1014,6 hPa 0,0 l/m 6,9 km/h (2 Bft) S-SW 202 0 min 0,5 C -1,9 C 9,3 km/h (2 Bft)
01.02.2023 21:30 2,4 C 5,6 C 24,2 C 1,7 C 0,4 C 0,0 C 87 % 99 % 1014,6 hPa 0,0 l/m 6,8 km/h (2 Bft) S-SW 202 0 min 0,5 C -1,9 C 8,4 km/h (2 Bft)
01.02.2023 21:35 2,4 C 5,6 C 24,2 C 1,8 C 0,5 C 0,0 C 87 % 99 % 1014,6 hPa 0,0 l/m 6,6 km/h (2 Bft) S 180 0 min 0,5 C -1,7 C 11,7 km/h (2 Bft)
01.02.2023 21:40 2,5 C 5,6 C 24,2 C 1,9 C 0,6 C 0,0 C 87 % 99 % 1014,6 hPa 0,0 l/m 6,6 km/h (2 Bft) SW 225 0 min 0,6 C -1,6 C 6,1 km/h (2 Bft)
01.02.2023 21:45 2,5 C 5,6 C 24,2 C 1,9 C 0,6 C 0,0 C 87 % 99 % 1014,3 hPa 0,0 l/m 6,6 km/h (2 Bft) SW 225 0 min 0,6 C -1,6 C 8,5 km/h (2 Bft)
01.02.2023 21:50 2,4 C 5,6 C 24,2 C 1,8 C 0,7 C 0,0 C 87 % 99 % 1014,3 hPa 0,0 l/m 6,3 km/h (2 Bft) SW 225 0 min 0,5 C -1,3 C 7,4 km/h (2 Bft)
01.02.2023 21:55 2,4 C 5,6 C 24,2 C 1,9 C 0,8 C 0,0 C 87 % 99 % 1014,3 hPa 0,0 l/m 6,3 km/h (2 Bft) SW 225 0 min 0,5 C -1,2 C 6,1 km/h (2 Bft)
01.02.2023 22:00 2,5 C 5,6 C 24,2 C 1,9 C 0,8 C 0,0 C 87 % 99 % 1014,3 hPa 0,0 l/m 6,3 km/h (2 Bft) SW 225 0 min 0,6 C -1,2 C 4,8 km/h (1 Bft)
01.02.2023 22:05 2,5 C 5,6 C 24,2 C 1,9 C 0,7 C 0,0 C 87 % 99 % 1014,4 hPa 0,0 l/m 6,6 km/h (2 Bft) SW 225 0 min 0,6 C -1,4 C 6,8 km/h (2 Bft)
01.02.2023 22:11 2,7 C 5,6 C 24,2 C 2,1 C 0,9 C 0,0 C 87 % 99 % 1014,4 hPa 0,0 l/m 6,8 km/h (2 Bft) N 0 0 min 0,8 C -1,3 C 5,5 km/h (1 Bft)
01.02.2023 22:24 2,7 C 5,6 C 24,2 C 2,2 C 1,3 C 0,0 C 87 % 99 % 1014,2 hPa 0,0 l/m 5,6 km/h (1 Bft) SW 225 0 min 0,8 C -0,4 C 5,1 km/h (1 Bft)
01.02.2023 22:25 2,7 C 5,6 C 24,2 C 2,2 C 1,3 C 0,0 C 87 % 99 % 1014,2 hPa 0,0 l/m 5,6 km/h (1 Bft) SW 225 0 min 0,8 C -0,4 C 5,1 km/h (1 Bft)
01.02.2023 22:41 2,9 C 5,5 C 24,2 C 2,4 C 1,3 C 0,0 C 87 % 99 % 1014,2 hPa 0,0 l/m 6,8 km/h (2 Bft) SW 225 0 min 1,0 C -0,8 C 6,4 km/h (2 Bft)
01.02.2023 22:50 2,9 C 5,5 C 24,2 C 2,4 C 1,4 C 0,0 C 87 % 99 % 1014,2 hPa 0,0 l/m 6,3 km/h (2 Bft) SW 225 0 min 1,0 C -0,5 C 9,0 km/h (2 Bft)
01.02.2023 22:55 2,9 C 5,5 C 24,2 C 2,4 C 1,4 C 0,0 C 87 % 99 % 1014,2 hPa 0,0 l/m 6,3 km/h (2 Bft) S-SW 202 0 min 1,0 C -0,5 C 8,0 km/h (2 Bft)
01.02.2023 23:00 3,0 C 5,5 C 24,2 C 2,5 C 1,5 C 0,0 C 87 % 99 % 1014,2 hPa 0,0 l/m 6,6 km/h (2 Bft) SW 225 0 min 1,1 C -0,5 C 7,1 km/h (2 Bft)
01.02.2023 23:05 3,1 C 5,5 C 24,2 C 2,6 C 1,5 C 0,0 C 86 % 99 % 1014,4 hPa 0,0 l/m 6,6 km/h (2 Bft) SW 225 0 min 1,0 C -0,5 C 6,4 km/h (2 Bft)
01.02.2023 23:10 3,0 C 5,5 C 24,2 C 2,6 C 1,7 C 0,0 C 86 % 99 % 1014,4 hPa 0,0 l/m 6,0 km/h (2 Bft) W-SW 247 0 min 0,9 C -0,1 C 6,3 km/h (2 Bft)
01.02.2023 23:15 3,1 C 5,5 C 24,2 C 2,8 C 2,2 C 0,0 C 86 % 99 % 1014,4 hPa 0,0 l/m 4,3 km/h (1 Bft) W-SW 247 0 min 1,0 C 2,2 C 6,6 km/h (2 Bft)
01.02.2023 23:20 3,0 C 5,6 C 24,2 C 2,7 C 2,2 C 0,0 C 86 % 99 % 1014,4 hPa 0,0 l/m 3,7 km/h (1 Bft) SW 225 0 min 0,9 C 2,2 C 5,0 km/h (1 Bft)
01.02.2023 23:25 2,8 C 5,6 C 24,2 C 2,0 C 0,3 C 0,0 C 86 % 99 % 1014,4 hPa 0,0 l/m 6,8 km/h (2 Bft) SW 225 0 min 0,7 C -2,0 C 16,6 km/h (3 Bft)
01.02.2023 23:30 2,9 C 5,8 C 24,2 C 2,2 C -0,1 C 0,0 C 86 % 99 % 1014,4 hPa 0,0 l/m 7,9 km/h (2 Bft) W-SW 247 0 min 0,8 C -2,8 C 10,9 km/h (2 Bft)
01.02.2023 23:35 2,5 C 5,8 C 24,2 C 1,8 C 0,4 C 0,0 C 86 % 99 % 1014,4 hPa 0,0 l/m 5,3 km/h (1 Bft) S 180 0 min 0,4 C -1,3 C 5,1 km/h (1 Bft)
01.02.2023 23:40 2,4 C 5,8 C 24,2 C 1,9 C 0,9 C 0,0 C 86 % 99 % 1014,4 hPa 0,0 l/m 3,7 km/h (1 Bft) S 180 0 min 0,3 C 0,9 C 4,5 km/h (1 Bft)
01.02.2023 23:45 2,2 C 5,8 C 24,2 C 1,5 C 0,1 C 0,0 C 86 % 99 % 1014,2 hPa 0,0 l/m 4,7 km/h (1 Bft) S-SO 157 0 min 0,1 C -1,3 C 4,2 km/h (1 Bft)
01.02.2023 23:50 2,1 C 5,8 C 24,2 C 1,4 C -0,1 C 0,0 C 86 % 99 % 1014,2 hPa 0,0 l/m 4,7 km/h (1 Bft) S-SW 202 0 min 0,0 C -1,6 C 8,0 km/h (2 Bft)
01.02.2023 23:55 2,0 C 5,8 C 24,2 C 1,3 C -0,2 C 0,0 C 86 % 99 % 1014,2 hPa 0,0 l/m 4,5 km/h (1 Bft) SW 225 0 min -0,1 C -0,2 C 2,6 km/h (1 Bft)
_ Min-Zeit 18:15 00:00 07:05 18:20 18:11 00:00 17:15 00:00 17:25 - 06:11 - - - 18:00 18:11 23:55
Minimum _ 1,6 C 5,2 C 0,4 C 0,5 C -2,3 C 0,0 C 69 % 99 % 1011,5 hPa - 3,2 km/h (1 Bft) - - - -1,6 C -5,6 C 2,6 km/h (1 Bft)
_ Max-Zeit 14:11 17:50 03:15 14:24 13:05 00:00 19:55 00:00 01:25 11:05 17:40 - - 00:00 00:55 05:55 17:35
Maximum _ 6,3 C 6,0 C 73,0 C 6,0 C 5,1 C 0,0 C 87 % 99 % 1016,5 hPa 0,7 l/m 18,2 km/h
SW (3 Bft)
- - 0 min 2,1 C 3,8 C 37,7 km/h
W-SW (5 Bft)
Durchschnitt _ 4,3 C 5,5 C 31,7 C 3,7 C 2,1 C 0,0 C 79 % 99 % 1014,0 hPa #3,4 l/m 9,4 km/h (2 Bft) SW - #0 min. 0,9 C -0,5 C 12,0 km/h (2 Bft)
2023 www.wetterstation-wechselburg.de